Location: La Junie
(44.7428°N, 2.1773°E)
Time: 08:02:53
(UTC+00:00)

Helios 1A Rocket - Pass Details

Date: 15 May 2026
Orbit: 400 x 410 km, 98.3° (Epoch: 6 June)

Event Time Altitude Azimuth Distance (km) Brightness Sun altitude
Rises 20:05:21 0° 13° (NNE) 2,337 6.4 -8.6°
Reaches altitude 10° 20:07:21 10° 13° (NNE) 1,469 5.3 -8.9°
Maximum altitude 20:10:29 89° 288° (WNW) 408 2.2 -9.3°
Drops below altitude 10° 20:13:34 10° 195° (SSW) 1,449 4.7 -9.8°
Sets 20:15:32 0° 195° (SSW) 2,301 5.8 -10.0°
